Regional Weather Roundup
Issued by NWS

Home | Current Version | Previous Version | Text Only | Print | Product List | Glossary Off
Versions: 1 2 3 4 5 6 7 8 9 10 11 12 13 14 15 16 17 18 19 20 21 22 23 24 25 26 27 28

000
ASUS45 KCYS 240510
RWRWY

WYOMING REGIONAL WEATHER ROUNDUP
NATIONAL WEATHER SERVICE CHEYENNE WY
1100 PM MDT TUE MAY 23 2017

NOTE:  "FAIR" INDICATES FEW OR NO CLOUDS BELOW 12,000 FEET
WITH NO SIGNIFICANT WEATHER AND/OR OBSTRUCTIONS TO VISIBILITY.

WYZ001-240600-
YELLOWSTONE NATIONAL PARK

CITY           SKY/WX    TMP DP  RH WIND       PRES   REMARKS
LK YELLOWSTONE   N/A     37  34  89 CALM      30.14F
W YELLOWSTONE  NOT AVBL

$$
WYZ002>013-054>058-071-098>099-240600-
NORTHERN WYOMING

CITY           SKY/WX    TMP DP  RH WIND       PRES   REMARKS
JACKSON        FAIR      50  36  57 CALM      30.08F
CODY           FAIR      53  39  59 S9        29.92F
GREYBULL       FAIR      58  30  34 E10       29.89F
WORLAND        FAIR      51  36  56 SE10      29.90F
SHERIDAN       FAIR      45  40  82 S6        29.87F
BUFFALO        FAIR      53  39  59 S14       29.94F
GILLETTE       FAIR      45  39  79 S10       29.94F
HULETT         FAIR      52  34  50 SE9       29.95F
NEWCASTLE      FAIR      45  34  65 S5        29.99F

$$
WYZ014>020-022>026-101>103-240600-
CENTRAL WYOMING

CITY           SKY/WX    TMP DP  RH WIND       PRES   REMARKS
BIG PINEY      FAIR      47  33  58 N13       30.12F
PINEDALE       FAIR      43  34  70 W7        30.13F
DUBOIS         FAIR      48  32  53 NW9       30.09F
LANDER         FAIR      50  35  56 SW6       29.98F
RIVERTON       FAIR      56  30  37 SE5       29.99F
CASPER         FAIR      45  39  79 SW7       30.00F
DOUGLAS        FAIR      43  37  79 SE6       30.02F

$$
WYZ021-027>030-104>119-240600-
SOUTHERN WYOMING

CITY           SKY/WX    TMP DP  RH WIND       PRES   REMARKS
EVANSTON       FAIR      53  33  46 S6        30.16F
KEMMERER         N/A     50  37  62 SW6       30.16
FORT BRIDGER   FAIR      56  36  47 SW10      30.18
ROCK SPRINGS   FAIR      55  38  52 SW13      30.10F
DIXON            N/A     46  33  60 NE3       30.16F
RAWLINS        FAIR      44  30  57 E5        30.10F
SARATOGA       FAIR      41  32  70 SE7       30.14F
LARAMIE        FAIR      35  28  75 W5        30.11F WCI  31
CHEYENNE       FAIR      40  33  76 W9        30.09F WCI  34
TORRINGTON     FAIR      43  36  76 SE6       30.01F

$$




USA.gov is the U.S. government's official web portal to all federal, state and local government web resources and services.